owner,sensor,date,latitude,longitude,vertical_datum,direction_of_sea_water_velocity,sea_water_speed,upward_sea_water_velocity,qcFlag 
TABS,ioos:station:wmo:42051:1,2017-10-01T00:00:00Z,29.6350,-93.6417,2.0,235.558645,26.66395507,-99999.0,'11111222,11111222,99999999' 
TABS,ioos:station:wmo:42051:1,2017-10-01T00:30:00Z,29.6350,-93.6417,2.0,231.6486926,26.07671183,-99999.0,'11111222,11111222,99999999' 
TABS,ioos:station:wmo:42051:1,2017-10-01T01:00:00Z,29.6350,-93.6417,2.0,229.4658873,26.69656532,-99999.0,'11111222,11111222,99999999' 
TABS,ioos:station:wmo:42051:1,2017-10-01T01:30:00Z,29.6350,-93.6417,2.0,237.3423552,27.38999817,-99999.0,'11111222,11111222,99999999' 
TABS,ioos:station:wmo:42051:1,2017-10-01T02:00:00Z,29.6350,-93.6417,2.0,232.4100802,33.27862527,-99999.0,'11111222,11111222,99999999' 
TABS,ioos:station:wmo:42051:1,2017-10-01T02:30:00Z,29.6350,-93.6417,2.0,228.9798241,36.67415711,-99999.0,'11111222,11111222,99999999' 
TABS,ioos:station:wmo:42051:1,2017-10-01T03:00:00Z,29.6350,-93.6417,2.0,228.5345312,38.99334302,-99999.0,'11111222,11111222,99999999' 
TABS,ioos:station:wmo:42051:1,2017-10-01T03:30:00Z,29.6350,-93.6417,2.0,222.3543032,43.81660416,-99999.0,'11111222,11111222,99999999' 
TABS,ioos:station:wmo:42051:1,2017-10-01T04:00:00Z,29.6350,-93.6417,2.0,225.7569247,48.6885541,-99999.0,'11111222,11111222,99999999' 
TABS,ioos:station:wmo:42051:1,2017-10-01T04:30:00Z,29.6350,-93.6417,2.0,226.8188729,50.56240599,-99999.0,'11111222,11111222,99999999' 
TABS,ioos:station:wmo:42051:1,2017-10-01T05:00:00Z,29.6350,-93.6417,2.0,229.741613,49.61071658,-99999.0,'11111222,11111222,99999999' 
TABS,ioos:station:wmo:42051:1,2017-10-01T05:30:00Z,29.6350,-93.6417,2.0,225.4824576,52.03076398,-99999.0,'11111222,11111222,99999999' 
TABS,ioos:station:wmo:42051:1,2017-10-01T06:00:00Z,29.6350,-93.6417,2.0,225.6733928,58.33327095,-99999.0,'11111222,11111222,99999999' 
TABS,ioos:station:wmo:42051:1,2017-10-01T06:30:00Z,29.6350,-93.6417,2.0,227.8617467,60.18622185,-99999.0,'11111222,11111222,99999999' 
TABS,ioos:station:wmo:42051:1,2017-10-01T07:00:00Z,29.6350,-93.6417,2.0,225.7908049,59.91886932,-99999.0,'11111222,11111222,99999999' 
TABS,ioos:station:wmo:42051:1,2017-10-01T07:30:00Z,29.6350,-93.6417,2.0,225.6985409,60.29240914,-99999.0,'11111222,11111222,99999999' 
TABS,ioos:station:wmo:42051:1,2017-10-01T08:00:00Z,29.6350,-93.6417,2.0,226.9671077,59.52398256,-99999.0,'11111222,11111222,99999999' 
TABS,ioos:station:wmo:42051:1,2017-10-01T08:30:00Z,29.6350,-93.6417,2.0,226.4146799,52.11551976,-99999.0,'11111222,11111222,99999999' 
TABS,ioos:station:wmo:42051:1,2017-10-01T09:00:00Z,29.6350,-93.6417,2.0,252.0625852,31.65875708,-99999.0,'11111222,11111222,99999999' 
TABS,ioos:station:wmo:42051:1,2017-10-01T09:30:00Z,29.6350,-93.6417,2.0,251.1892562,35.2316917,-99999.0,'11111222,11111222,99999999' 
TABS,ioos:station:wmo:42051:1,2017-10-01T10:00:00Z,29.6350,-93.6417,2.0,256.9160855,29.4648757,-99999.0,'11111222,11111222,99999999' 
TABS,ioos:station:wmo:42051:1,2017-10-01T10:30:00Z,29.6350,-93.6417,2.0,255.330785,29.65663838,-99999.0,'11111222,11111222,99999999' 
TABS,ioos:station:wmo:42051:1,2017-10-01T11:00:00Z,29.6350,-93.6417,2.0,250.8315998,25.70509677,-99999.0,'11111222,11111222,99999999' 
TABS,ioos:station:wmo:42051:1,2017-10-01T11:30:00Z,29.6350,-93.6417,2.0,253.2923552,27.37563333,-99999.0,'11111222,11111222,99999999' 
TABS,ioos:station:wmo:42051:1,2017-10-01T12:00:00Z,29.6350,-93.6417,2.0,245.1460395,32.64326577,-99999.0,'11111222,11111222,99999999' 
TABS,ioos:station:wmo:42051:1,2017-10-01T12:30:00Z,29.6350,-93.6417,2.0,267.6626424,32.12671941,-99999.0,'11111222,11111222,99999999' 
TABS,ioos:station:wmo:42051:1,2017-10-01T13:00:00Z,29.6350,-93.6417,2.0,273.1042833,47.27935808,-99999.0,'11111222,11111222,99999999' 
TABS,ioos:station:wmo:42051:1,2017-10-01T13:30:00Z,29.6350,-93.6417,2.0,275.1879277,60.05598222,-99999.0,'11111222,11111222,99999999' 
TABS,ioos:station:wmo:42051:1,2017-10-01T14:00:00Z,29.6350,-93.6417,2.0,277.1925454,53.99483772,-99999.0,'11111222,11111222,99999999' 
TABS,ioos:station:wmo:42051:1,2017-10-01T14:30:00Z,29.6350,-93.6417,2.0,278.3956938,51.0267861,-99999.0,'11111222,11111222,99999999' 
TABS,ioos:station:wmo:42051:1,2017-10-01T15:00:00Z,29.6350,-93.6417,2.0,271.156202,56.0213977,-99999.0,'11111222,11111222,99999999' 
TABS,ioos:station:wmo:42051:1,2017-10-01T15:30:00Z,29.6350,-93.6417,2.0,276.4946825,55.43572224,-99999.0,'11111222,11111222,99999999' 
TABS,ioos:station:wmo:42051:1,2017-10-01T16:00:00Z,29.6350,-93.6417,2.0,271.82458,49.63515387,-99999.0,'11111222,11111222,99999999' 
TABS,ioos:station:wmo:42051:1,2017-10-01T16:30:00Z,29.6350,-93.6417,2.0,267.6335947,54.98687571,-99999.0,'11111222,11111222,99999999' 
TABS,ioos:station:wmo:42051:1,2017-10-01T17:00:00Z,29.6350,-93.6417,2.0,260.5699209,51.94186847,-99999.0,'11111222,11111222,99999999' 
TABS,ioos:station:wmo:42051:1,2017-10-01T17:30:00Z,29.6350,-93.6417,2.0,257.3715549,54.4778276,-99999.0,'11111222,11111222,99999999' 
TABS,ioos:station:wmo:42051:1,2017-10-01T18:00:00Z,29.6350,-93.6417,2.0,264.0581677,54.58320804,-99999.0,'11111222,11111222,99999999' 
TABS,ioos:station:wmo:42051:1,2017-10-01T18:30:00Z,29.6350,-93.6417,2.0,262.4666311,51.56502691,-99999.0,'11111222,11111222,99999999' 
TABS,ioos:station:wmo:42051:1,2017-10-01T19:00:00Z,29.6350,-93.6417,2.0,261.1980321,51.89105896,-99999.0,'11111222,11111222,99999999' 
TABS,ioos:station:wmo:42051:1,2017-10-01T19:30:00Z,29.6350,-93.6417,2.0,255.5746823,45.76267475,-99999.0,'11111222,11111222,99999999' 
TABS,ioos:station:wmo:42051:1,2017-10-01T20:00:00Z,29.6350,-93.6417,2.0,250.6023709,40.85922784,-99999.0,'11111222,11111222,99999999' 
TABS,ioos:station:wmo:42051:1,2017-10-01T20:30:00Z,29.6350,-93.6417,2.0,249.6411094,37.68396211,-99999.0,'11111222,11111222,99999999' 
TABS,ioos:station:wmo:42051:1,2017-10-01T21:00:00Z,29.6350,-93.6417,2.0,249.4045038,37.75280122,-99999.0,'11111222,11111222,99999999' 
TABS,ioos:station:wmo:42051:1,2017-10-01T21:30:00Z,29.6350,-93.6417,2.0,249.4549784,35.30546275,-99999.0,'11111222,11111222,99999999' 
TABS,ioos:station:wmo:42051:1,2017-10-01T22:00:00Z,29.6350,-93.6417,2.0,251.9351689,35.69969888,-99999.0,'11111222,11111222,99999999' 
TABS,ioos:station:wmo:42051:1,2017-10-01T22:30:00Z,29.6350,-93.6417,2.0,259.176386,39.94049198,-99999.0,'11111222,11111222,99999999' 
TABS,ioos:station:wmo:42051:1,2017-10-01T23:00:00Z,29.6350,-93.6417,2.0,256.8651142,39.29806357,-99999.0,'11111222,11111222,99999999' 
TABS,ioos:station:wmo:42051:1,2017-10-01T23:30:00Z,29.6350,-93.6417,2.0,258.3136964,39.151507,-99999.0,'11111222,11111222,99999999' 
TABS,ioos:station:wmo:42051:1,2017-10-02T00:00:00Z,29.6350,-93.6417,2.0,258.9201176,39.49614791,-99999.0,'11111222,11111222,99999999' 
TABS,ioos:station:wmo:42051:1,2017-10-02T00:30:00Z,29.6350,-93.6417,2.0,257.4495734,38.05936678,-99999.0,'11111222,11111222,99999999' 
TABS,ioos:station:wmo:42051:1,2017-10-02T01:00:00Z,29.6350,-93.6417,2.0,258.1585192,36.59880463,-99999.0,'11111222,11111222,99999999' 
TABS,ioos:station:wmo:42051:1,2017-10-02T01:30:00Z,29.6350,-93.6417,2.0,264.4299551,38.01949105,-99999.0,'11111222,11111222,99999999' 
TABS,ioos:station:wmo:42051:1,2017-10-02T02:00:00Z,29.6350,-93.6417,2.0,256.9790111,41.32243579,-99999.0,'11111222,11111222,99999999' 
TABS,ioos:station:wmo:42051:1,2017-10-02T02:30:00Z,29.6350,-93.6417,2.0,262.510432,40.20295014,-99999.0,'11111222,11111222,99999999' 
TABS,ioos:station:wmo:42051:1,2017-10-02T03:00:00Z,29.6350,-93.6417,2.0,258.206177,41.83306109,-99999.0,'11111222,11111222,99999999' 
TABS,ioos:station:wmo:42051:1,2017-10-02T03:30:00Z,29.6350,-93.6417,2.0,252.9512737,42.60203047,-99999.0,'11111222,11111222,99999999' 
TABS,ioos:station:wmo:42051:1,2017-10-02T04:00:00Z,29.6350,-93.6417,2.0,255.6911324,46.45094725,-99999.0,'11111222,11111222,99999999' 
TABS,ioos:station:wmo:42051:1,2017-10-02T04:30:00Z,29.6350,-93.6417,2.0,259.3737872,51.41158722,-99999.0,'11111222,11111222,99999999' 
TABS,ioos:station:wmo:42051:1,2017-10-02T05:00:00Z,29.6350,-93.6417,2.0,255.7869899,50.42339536,-99999.0,'11111222,11111222,99999999' 
TABS,ioos:station:wmo:42051:1,2017-10-02T05:30:00Z,29.6350,-93.6417,2.0,251.0126768,42.99948488,-99999.0,'11111222,11111222,99999999' 
TABS,ioos:station:wmo:42051:1,2017-10-02T06:00:00Z,29.6350,-93.6417,2.0,249.3261448,53.67635327,-99999.0,'11111222,11111222,99999999' 
TABS,ioos:station:wmo:42051:1,2017-10-02T06:30:00Z,29.6350,-93.6417,2.0,249.8316594,57.19697982,-99999.0,'11111222,11111222,99999999' 
TABS,ioos:station:wmo:42051:1,2017-10-02T07:00:00Z,29.6350,-93.6417,2.0,249.5991055,42.68740447,-99999.0,'11111222,11111222,99999999' 
TABS,ioos:station:wmo:42051:1,2017-10-02T07:30:00Z,29.6350,-93.6417,2.0,243.4215103,39.18038412,-99999.0,'11111222,11111222,99999999' 
TABS,ioos:station:wmo:42051:1,2017-10-02T08:00:00Z,29.6350,-93.6417,2.0,253.5014692,39.29793888,-99999.0,'11111222,11111222,99999999' 
TABS,ioos:station:wmo:42051:1,2017-10-02T08:30:00Z,29.6350,-93.6417,2.0,250.2592048,40.94631241,-99999.0,'11111222,11111222,99999999' 
TABS,ioos:station:wmo:42051:1,2017-10-02T09:00:00Z,29.6350,-93.6417,2.0,260.1395524,34.10374759,-99999.0,'11111222,11111222,99999999' 
TABS,ioos:station:wmo:42051:1,2017-10-02T09:30:00Z,29.6350,-93.6417,2.0,249.773263,37.63052219,-99999.0,'11111222,11111222,99999999' 
TABS,ioos:station:wmo:42051:1,2017-10-02T10:00:00Z,29.6350,-93.6417,2.0,256.4692858,35.43341079,-99999.0,'11111222,11111222,99999999' 
TABS,ioos:station:wmo:42051:1,2017-10-02T10:30:00Z,29.6350,-93.6417,2.0,246.2328665,42.50466916,-99999.0,'11111222,11111222,99999999' 
TABS,ioos:station:wmo:42051:1,2017-10-02T11:00:00Z,29.6350,-93.6417,2.0,246.6719337,39.0414408,-99999.0,'11111222,11111222,99999999' 
TABS,ioos:station:wmo:42051:1,2017-10-02T11:30:00Z,29.6350,-93.6417,2.0,248.8950288,39.24218394,-99999.0,'11111222,11111222,99999999' 
TABS,ioos:station:wmo:42051:1,2017-10-02T12:00:00Z,29.6350,-93.6417,2.0,254.8628086,28.03258818,-99999.0,'11111222,11111222,99999999' 
TABS,ioos:station:wmo:42051:1,2017-10-02T12:30:00Z,29.6350,-93.6417,2.0,258.9042374,33.51648251,-99999.0,'11111222,11111222,99999999' 
TABS,ioos:station:wmo:42051:1,2017-10-02T13:00:00Z,29.6350,-93.6417,2.0,257.0191783,33.30094443,-99999.0,'11111222,11111222,99999999' 
TABS,ioos:station:wmo:42051:1,2017-10-02T13:30:00Z,29.6350,-93.6417,2.0,255.4385604,37.07070002,-99999.0,'11111222,11111222,99999999' 
TABS,ioos:station:wmo:42051:1,2017-10-02T14:00:00Z,29.6350,-93.6417,2.0,253.3603982,45.7142002,-99999.0,'11111222,11111222,99999999' 
TABS,ioos:station:wmo:42051:1,2017-10-02T14:30:00Z,29.6350,-93.6417,2.0,255.1016454,41.92945027,-99999.0,'11111222,11111222,99999999' 
TABS,ioos:station:wmo:42051:1,2017-10-02T15:00:00Z,29.6350,-93.6417,2.0,252.0232478,52.94454835,-99999.0,'11111222,11111222,99999999' 
TABS,ioos:station:wmo:42051:1,2017-10-02T15:30:00Z,29.6350,-93.6417,2.0,248.9012849,53.42114282,-99999.0,'11111222,11111222,99999999' 
TABS,ioos:station:wmo:42051:1,2017-10-02T16:00:00Z,29.6350,-93.6417,2.0,249.7828394,52.57931628,-99999.0,'11111222,11111222,99999999' 
TABS,ioos:station:wmo:42051:1,2017-10-02T16:30:00Z,29.6350,-93.6417,2.0,246.956111,51.91218836,-99999.0,'11111222,11111222,99999999' 
TABS,ioos:station:wmo:42051:1,2017-10-02T17:00:00Z,29.6350,-93.6417,2.0,247.204754,55.90641466,-99999.0,'11111222,11111222,99999999' 
TABS,ioos:station:wmo:42051:1,2017-10-02T17:30:00Z,29.6350,-93.6417,2.0,257.1070299,63.55214316,-99999.0,'11111222,11111222,99999999' 
TABS,ioos:station:wmo:42051:1,2017-10-02T18:00:00Z,29.6350,-93.6417,2.0,254.7703438,56.37992639,-99999.0,'11111222,11111222,99999999' 
TABS,ioos:station:wmo:42051:1,2017-10-02T18:30:00Z,29.6350,-93.6417,2.0,253.7672664,55.12760651,-99999.0,'11111222,11111222,99999999' 
TABS,ioos:station:wmo:42051:1,2017-10-02T19:00:00Z,29.6350,-93.6417,2.0,254.9015989,59.81470471,-99999.0,'11111222,11111222,99999999' 
TABS,ioos:station:wmo:42051:1,2017-10-02T19:30:00Z,29.6350,-93.6417,2.0,256.6096061,63.86611778,-99999.0,'11111222,11111222,99999999' 
TABS,ioos:station:wmo:42051:1,2017-10-02T20:00:00Z,29.6350,-93.6417,2.0,258.496014,69.04700211,-99999.0,'11111222,11111222,99999999' 
TABS,ioos:station:wmo:42051:1,2017-10-02T20:30:00Z,29.6350,-93.6417,2.0,258.4495716,63.17936768,-99999.0,'11111222,11111222,99999999' 
TABS,ioos:station:wmo:42051:1,2017-10-02T21:00:00Z,29.6350,-93.6417,2.0,254.2148199,59.29604118,-99999.0,'11111222,11111222,99999999' 
TABS,ioos:station:wmo:42051:1,2017-10-02T21:30:00Z,29.6350,-93.6417,2.0,255.6047773,59.29142012,-99999.0,'11111222,11111222,99999999' 
TABS,ioos:station:wmo:42051:1,2017-10-02T22:00:00Z,29.6350,-93.6417,2.0,255.3643937,55.44909918,-99999.0,'11111222,11111222,99999999' 
TABS,ioos:station:wmo:42051:1,2017-10-02T22:30:00Z,29.6350,-93.6417,2.0,255.5244196,47.4874436,-99999.0,'11111222,11111222,99999999' 
TABS,ioos:station:wmo:42051:1,2017-10-02T23:00:00Z,29.6350,-93.6417,2.0,254.2631569,47.08476718,-99999.0,'11111222,11111222,99999999' 
TABS,ioos:station:wmo:42051:1,2017-10-02T23:30:00Z,29.6350,-93.6417,2.0,254.9930009,50.55409973,-99999.0,'11111222,11111222,99999999' 
TABS,ioos:station:wmo:42051:1,2017-10-03T00:00:00Z,29.6350,-93.6417,2.0,254.7264708,44.60541895,-99999.0,'11111222,11111222,99999999' 
TABS,ioos:station:wmo:42051:1,2017-10-03T00:30:00Z,29.6350,-93.6417,2.0,251.8870644,50.01853756,-99999.0,'11111222,11111222,99999999' 
TABS,ioos:station:wmo:42051:1,2017-10-03T01:00:00Z,29.6350,-93.6417,2.0,251.9373356,45.70220345,-99999.0,'11111222,11111222,99999999' 
TABS,ioos:station:wmo:42051:1,2017-10-03T01:30:00Z,29.6350,-93.6417,2.0,256.8346503,46.89240877,-99999.0,'11111222,11111222,99999999' 
TABS,ioos:station:wmo:42051:1,2017-10-03T02:00:00Z,29.6350,-93.6417,2.0,256.9281518,41.91609834,-99999.0,'11111222,11111222,99999999' 
TABS,ioos:station:wmo:42051:1,2017-10-03T02:30:00Z,29.6350,-93.6417,2.0,261.3057752,51.60290786,-99999.0,'11111222,11111222,99999999' 
TABS,ioos:station:wmo:42051:1,2017-10-03T03:00:00Z,29.6350,-93.6417,2.0,254.9915895,49.62265007,-99999.0,'11111222,11111222,99999999' 
TABS,ioos:station:wmo:42051:1,2017-10-03T03:30:00Z,29.6350,-93.6417,2.0,254.6942036,47.9610592,-99999.0,'11111222,11111222,99999999' 
TABS,ioos:station:wmo:42051:1,2017-10-03T04:00:00Z,29.6350,-93.6417,2.0,261.2887312,48.13523138,-99999.0,'11111222,11111222,99999999' 
TABS,ioos:station:wmo:42051:1,2017-10-03T04:30:00Z,29.6350,-93.6417,2.0,258.6295416,46.71685028,-99999.0,'11111222,11111222,99999999' 
TABS,ioos:station:wmo:42051:1,2017-10-03T05:00:00Z,29.6350,-93.6417,2.0,255.9697247,43.72432275,-99999.0,'11111222,11111222,99999999' 
TABS,ioos:station:wmo:42051:1,2017-10-03T05:30:00Z,29.6350,-93.6417,2.0,259.5984794,43.64721411,-99999.0,'11111222,11111222,99999999' 
TABS,ioos:station:wmo:42051:1,2017-10-03T06:00:00Z,29.6350,-93.6417,2.0,259.1468925,39.5676901,-99999.0,'11111222,11111222,99999999' 
TABS,ioos:station:wmo:42051:1,2017-10-03T06:30:00Z,29.6350,-93.6417,2.0,259.1686435,49.97017611,-99999.0,'11111222,11111222,99999999' 
TABS,ioos:station:wmo:42051:1,2017-10-03T07:00:00Z,29.6350,-93.6417,2.0,249.1139591,53.09893596,-99999.0,'11111222,11111222,99999999' 
TABS,ioos:station:wmo:42051:1,2017-10-03T07:30:00Z,29.6350,-93.6417,2.0,255.6367657,46.80285996,-99999.0,'11111222,11111222,99999999' 
TABS,ioos:station:wmo:42051:1,2017-10-03T08:00:00Z,29.6350,-93.6417,2.0,253.8684978,44.918514,-99999.0,'11111222,11111222,99999999' 
TABS,ioos:station:wmo:42051:1,2017-10-03T08:30:00Z,29.6350,-93.6417,2.0,253.7065481,43.23640711,-99999.0,'11111222,11111222,99999999' 
TABS,ioos:station:wmo:42051:1,2017-10-03T09:00:00Z,29.6350,-93.6417,2.0,249.1018625,44.15455809,-99999.0,'11111222,11111222,99999999' 
TABS,ioos:station:wmo:42051:1,2017-10-03T09:30:00Z,29.6350,-93.6417,2.0,251.8940871,47.30213103,-99999.0,'11111222,11111222,99999999' 
TABS,ioos:station:wmo:42051:1,2017-10-03T10:00:00Z,29.6350,-93.6417,2.0,242.2952338,48.80512473,-99999.0,'11111222,11111222,99999999' 
TABS,ioos:station:wmo:42051:1,2017-10-03T10:30:00Z,29.6350,-93.6417,2.0,235.6785045,44.57009087,-99999.0,'11111222,11111222,99999999' 
TABS,ioos:station:wmo:42051:1,2017-10-03T11:00:00Z,29.6350,-93.6417,2.0,240.6554866,43.62780421,-99999.0,'11111222,11111222,99999999' 
TABS,ioos:station:wmo:42051:1,2017-10-03T11:30:00Z,29.6350,-93.6417,2.0,244.4238097,45.33185414,-99999.0,'11111222,11111222,99999999' 
TABS,ioos:station:wmo:42051:1,2017-10-03T12:00:00Z,29.6350,-93.6417,2.0,239.4711903,50.7907718,-99999.0,'11111222,11111222,99999999' 
TABS,ioos:station:wmo:42051:1,2017-10-03T12:30:00Z,29.6350,-93.6417,2.0,240.7788669,44.20534809,-99999.0,'11111222,11111222,99999999' 
TABS,ioos:station:wmo:42051:1,2017-10-03T13:00:00Z,29.6350,-93.6417,2.0,240.0580856,41.91406447,-99999.0,'11111222,11111222,99999999' 
TABS,ioos:station:wmo:42051:1,2017-10-03T13:30:00Z,29.6350,-93.6417,2.0,236.8164218,42.95489029,-99999.0,'11111222,11111222,99999999' 
TABS,ioos:station:wmo:42051:1,2017-10-03T14:00:00Z,29.6350,-93.6417,2.0,234.886881,38.09191121,-99999.0,'11111222,11111222,99999999' 
TABS,ioos:station:wmo:42051:1,2017-10-03T14:30:00Z,29.6350,-93.6417,2.0,231.4385159,35.3734095,-99999.0,'11111222,11111222,99999999' 
TABS,ioos:station:wmo:42051:1,2017-10-03T15:00:00Z,29.6350,-93.6417,2.0,256.5045017,35.69555995,-99999.0,'11111222,11111222,99999999' 
TABS,ioos:station:wmo:42051:1,2017-10-03T15:30:00Z,29.6350,-93.6417,2.0,266.3232056,41.79601058,-99999.0,'11111222,11111222,99999999' 
TABS,ioos:station:wmo:42051:1,2017-10-03T16:00:00Z,29.6350,-93.6417,2.0,259.2216722,63.15407904,-99999.0,'11111222,11111222,99999999' 
TABS,ioos:station:wmo:42051:1,2017-10-03T16:30:00Z,29.6350,-93.6417,2.0,257.6583215,55.67658484,-99999.0,'11111222,11111222,99999999' 
TABS,ioos:station:wmo:42051:1,2017-10-03T17:00:00Z,29.6350,-93.6417,2.0,255.7044516,59.57463386,-99999.0,'11111222,11111222,99999999' 
TABS,ioos:station:wmo:42051:1,2017-10-03T17:30:00Z,29.6350,-93.6417,2.0,256.9108322,62.48329457,-99999.0,'11111222,11111222,99999999' 
TABS,ioos:station:wmo:42051:1,2017-10-03T18:00:00Z,29.6350,-93.6417,2.0,255.1475792,61.8358747,-99999.0,'11111222,11111222,99999999' 
TABS,ioos:station:wmo:42051:1,2017-10-03T18:30:00Z,29.6350,-93.6417,2.0,254.300907,59.02163417,-99999.0,'11111222,11111222,99999999' 
TABS,ioos:station:wmo:42051:1,2017-10-03T19:00:00Z,29.6350,-93.6417,2.0,251.0003924,51.69626002,-99999.0,'11111222,11111222,99999999' 
TABS,ioos:station:wmo:42051:1,2017-10-03T19:30:00Z,29.6350,-93.6417,2.0,250.6676372,47.06362183,-99999.0,'11111222,11111222,99999999' 
TABS,ioos:station:wmo:42051:1,2017-10-03T20:00:00Z,29.6350,-93.6417,2.0,246.4355253,47.75186907,-99999.0,'11111222,11111222,99999999' 
TABS,ioos:station:wmo:42051:1,2017-10-03T20:30:00Z,29.6350,-93.6417,2.0,243.1051055,43.55038002,-99999.0,'11111222,11111222,99999999' 
TABS,ioos:station:wmo:42051:1,2017-10-03T21:00:00Z,29.6350,-93.6417,2.0,244.8556563,39.49216251,-99999.0,'11111222,11111222,99999999' 
TABS,ioos:station:wmo:42051:1,2017-10-03T21:30:00Z,29.6350,-93.6417,2.0,260.1440412,40.72094424,-99999.0,'11111222,11111222,99999999' 
TABS,ioos:station:wmo:42051:1,2017-10-03T22:00:00Z,29.6350,-93.6417,2.0,250.243511,67.06760246,-99999.0,'11111222,11111222,99999999' 
TABS,ioos:station:wmo:42051:1,2017-10-03T22:30:00Z,29.6350,-93.6417,2.0,250.0961459,68.85275013,-99999.0,'11111222,11111222,99999999' 
TABS,ioos:station:wmo:42051:1,2017-10-03T23:00:00Z,29.6350,-93.6417,2.0,248.3554785,59.53786358,-99999.0,'11111222,11111222,99999999' 
TABS,ioos:station:wmo:42051:1,2017-10-03T23:30:00Z,29.6350,-93.6417,2.0,245.4842101,56.39393673,-99999.0,'11111222,11111222,99999999' 
TABS,ioos:station:wmo:42051:1,2017-10-04T00:00:00Z,29.6350,-93.6417,2.0,247.2535064,52.70935875,-99999.0,'11111222,11111222,99999999' 
TABS,ioos:station:wmo:42051:1,2017-10-04T00:30:00Z,29.6350,-93.6417,2.0,249.1400017,44.40018243,-99999.0,'11111222,11111222,99999999' 
TABS,ioos:station:wmo:42051:1,2017-10-04T01:00:00Z,29.6350,-93.6417,2.0,254.4957466,54.54475227,-99999.0,'11111222,11111222,99999999' 
TABS,ioos:station:wmo:42051:1,2017-10-04T01:30:00Z,29.6350,-93.6417,2.0,248.7594341,48.91264152,-99999.0,'11111222,11111222,99999999' 
TABS,ioos:station:wmo:42051:1,2017-10-04T02:00:00Z,29.6350,-93.6417,2.0,260.0765915,52.34304156,-99999.0,'11111222,11111222,99999999' 
TABS,ioos:station:wmo:42051:1,2017-10-04T02:30:00Z,29.6350,-93.6417,2.0,248.6864787,60.14333296,-99999.0,'11111222,11111222,99999999' 
TABS,ioos:station:wmo:42051:1,2017-10-04T03:00:00Z,29.6350,-93.6417,2.0,246.0235236,64.05717602,-99999.0,'11111222,11111222,99999999' 
TABS,ioos:station:wmo:42051:1,2017-10-04T03:30:00Z,29.6350,-93.6417,2.0,250.3771304,59.0492447,-99999.0,'11111222,11111222,99999999' 
TABS,ioos:station:wmo:42051:1,2017-10-04T04:00:00Z,29.6350,-93.6417,2.0,256.7883921,57.10123116,-99999.0,'11111222,11111222,99999999' 
TABS,ioos:station:wmo:42051:1,2017-10-04T04:30:00Z,29.6350,-93.6417,2.0,259.6451954,54.80246892,-99999.0,'11111222,11111222,99999999' 
TABS,ioos:station:wmo:42051:1,2017-10-04T05:00:00Z,29.6350,-93.6417,2.0,257.3479763,61.72878826,-99999.0,'11111222,11111222,99999999' 
TABS,ioos:station:wmo:42051:1,2017-10-04T05:30:00Z,29.6350,-93.6417,2.0,258.7978415,63.36719735,-99999.0,'11111222,11111222,99999999' 
TABS,ioos:station:wmo:42051:1,2017-10-04T06:00:00Z,29.6350,-93.6417,2.0,253.3282307,57.13147119,-99999.0,'11111222,11111222,99999999' 
TABS,ioos:station:wmo:42051:1,2017-10-04T06:30:00Z,29.6350,-93.6417,2.0,247.7548733,62.15594742,-99999.0,'11111222,11111222,99999999' 
TABS,ioos:station:wmo:42051:1,2017-10-04T07:00:00Z,29.6350,-93.6417,2.0,230.7061162,58.31416466,-99999.0,'11111222,11111222,99999999' 
TABS,ioos:station:wmo:42051:1,2017-10-04T07:30:00Z,29.6350,-93.6417,2.0,261.4544887,51.35002726,-99999.0,'11111222,11111222,99999999' 
TABS,ioos:station:wmo:42051:1,2017-10-04T08:00:00Z,29.6350,-93.6417,2.0,256.7798241,42.72213712,-99999.0,'11111222,11111222,99999999' 
TABS,ioos:station:wmo:42051:1,2017-10-04T08:30:00Z,29.6350,-93.6417,2.0,256.4502959,53.65324315,-99999.0,'11111222,11111222,99999999' 
TABS,ioos:station:wmo:42051:1,2017-10-04T09:00:00Z,29.6350,-93.6417,2.0,246.1796496,63.68473915,-99999.0,'11111222,11111222,99999999' 
TABS,ioos:station:wmo:42051:1,2017-10-04T09:30:00Z,29.6350,-93.6417,2.0,256.3690971,52.74554484,-99999.0,'11111222,11111222,99999999' 
TABS,ioos:station:wmo:42051:1,2017-10-04T10:00:00Z,29.6350,-93.6417,2.0,259.900511,53.54970121,-99999.0,'11111222,11111222,99999999' 
TABS,ioos:station:wmo:42051:1,2017-10-04T10:30:00Z,29.6350,-93.6417,2.0,258.7650139,52.20027682,-99999.0,'11111222,11111222,99999999' 
TABS,ioos:station:wmo:42051:1,2017-10-04T11:00:00Z,29.6350,-93.6417,2.0,269.1548968,46.80508626,-99999.0,'11111222,11111222,99999999' 
TABS,ioos:station:wmo:42051:1,2017-10-04T11:30:00Z,29.6350,-93.6417,2.0,258.9910028,55.56243065,-99999.0,'11111222,11111222,99999999' 
TABS,ioos:station:wmo:42051:1,2017-10-04T12:00:00Z,29.6350,-93.6417,2.0,252.2045707,64.55876238,-99999.0,'11111222,11111222,99999999' 
TABS,ioos:station:wmo:42051:1,2017-10-04T12:30:00Z,29.6350,-93.6417,2.0,254.8168805,61.09240215,-99999.0,'11111222,11111222,99999999' 
TABS,ioos:station:wmo:42051:1,2017-10-04T13:00:00Z,29.6350,-93.6417,2.0,250.1969491,68.09691476,-99999.0,'11111222,11111222,99999999' 
TABS,ioos:station:wmo:42051:1,2017-10-04T13:30:00Z,29.6350,-93.6417,2.0,245.6958297,68.00706213,-99999.0,'11111222,11111222,99999999' 
TABS,ioos:station:wmo:42051:1,2017-10-04T14:00:00Z,29.6350,-93.6417,2.0,241.7280843,62.47214179,-99999.0,'11111222,11111222,99999999' 
TABS,ioos:station:wmo:42051:1,2017-10-04T14:30:00Z,29.6350,-93.6417,2.0,243.913441,62.60761775,-99999.0,'11111222,11111222,99999999' 
TABS,ioos:station:wmo:42051:1,2017-10-04T15:00:00Z,29.6350,-93.6417,2.0,245.2824649,61.43884927,-99999.0,'11111222,11111222,99999999' 
TABS,ioos:station:wmo:42051:1,2017-10-04T15:30:00Z,29.6350,-93.6417,2.0,245.8459196,52.9343518,-99999.0,'11111222,11111222,99999999' 
TABS,ioos:station:wmo:42051:1,2017-10-04T16:00:00Z,29.6350,-93.6417,2.0,249.7579746,50.55200293,-99999.0,'11111222,11111222,99999999' 